Other Public Products
Issued by NWS Grand Forks, ND

Home | Current Version | Previous Version | Graphics & Text | Print | Product List | Glossary On
Versions: 1 2 3 4 5 6 7 8 9 10 11 12 13 14 15 16 17 18 19 20 21 22 23 24 25 26 27 28 29 30 31 32 33 34 35 36 37 38 39 40 41 42 43 44 45 46 47 48 49 50
298
FPUS83 KFGF 301631
OPUFGF
PRAIRIE TO PINES WEATHER ROUNDUP
NATIONAL WEATHER SERVICE EASTERN NORTH DAKOTA/GRAND FORKS ND
1100 AM CDT SAT APR 30 2016

 **SATELLITE DATA USED TO AUGMENT SKY COVER AT AUTOMATED STATIONS**
 *****  WEATHER ACROSS EASTERN NORTH DAKOTA  *****

CITY           SKY/WX    TMP DP  RH WIND       PRES   REMARKS
GRAND FORKS    MOSUNNY   56  29  35 NE18G29   30.27F
GRAND FORKS AF SUNNY     56  28  34 E15G23    30.27F
GRAND CITY NWS NOT AVBL
BUXTON           N/A     56  32  40 NE20G33     N/A
DEVILS LAKE    SUNNY     53  31  42 E21       30.28S
FARGO          SUNNY     56  31  38 E23       30.19F
WAHPETON ARPT  CLOUDY    54  30  40 E16G24    30.14F
$$

 *****  WEATHER ACROSS CENTRAL AND WESTERN NORTH DAKOTA  *****

CITY           SKY/WX    TMP DP  RH WIND       PRES   REMARKS
JAMESTOWN      CLOUDY    53  30  41 NE24G36   30.19F
BISMARCK       PTSUNNY   52  36  54 E16       30.20S
MINOT          SUNNY     60  30  32 NE15      30.27F
MINOT AFB      SUNNY     56  31  39 E15       30.27S
GARRISON         N/A     54  32  43 NE14G24   30.23S
WILLISTON      SUNNY     57  31  37 E9        30.27S
DICKINSON      SUNNY     51  33  50 NE16      30.18S
HETTINGER      PTSUNNY   49  35  58 NE17G23   30.17R
$$

 *****  OTHER OBSERVATIONS NORTHEAST NORTH DAKOTA  *****

CITY           SKY/WX    TMP DP  RH WIND       PRES   REMARKS
WALHALLA       FAIR      54  34  47 NE12      30.33F
LANGDON        FAIR      55  28  35 E21       30.30F
CAVALIER       FAIR      55  32  41 NE14      30.32F
GRAFTON        FAIR      55  30  38 NE20G28   30.31F
CANDO          FAIR      55  30  38 E15G25    30.31S
FORT TOTTEN      N/A     54  33  44 E8        29.95
ROLLA          FAIR      54  27  35 E14G23    30.31S
RUGBY          FAIR      55  30  38 E23G29    30.27F
 ***** THE ABOVE OBSERVATIONS ARE NON NWS ARE NOT QUALITY
        CONTROLLED AND MAY MIS-REPORT RAIN FOR SNOW...
$$

 *****  OTHER OBSERVATIONS SOUTHEAST NORTH DAKOTA *****

CITY           SKY/WX    TMP DP  RH WIND       PRES   REMARKS
COOPERSTOWN    NOT AVBL
VALLEY CITY    FAIR      52  32  46 NE23G33   30.20F
OAKES            N/A    N/A N/A N/A MISG        N/A
GWINNER        FAIR      55  34  44 NE23G30   30.15S
SHEYENNE NWR     N/A     54  31  41 NE20      29.95
BUFFALO          N/A     55  28  35 NE25        N/A
WYNDMERE         N/A     54  34  47 NE18        N/A
 ***** THE ABOVE OBSERVATIONS ARE NON NWS ARE NOT QUALITY
       CONTROLLED AND MAY MIS-REPORT RAIN FOR SNOW...
$$

  *****  WEATHER ACROSS NORTHERN MINNESOTA  *****

CITY           SKY/WX    TMP DP  RH WIND       PRES   REMARKS
FLAG ISLAND    SUNNY     48  28  46 N14       30.34F
WARROAD        SUNNY     48  34  57 NE9       30.34F
ROSEAU         SUNNY     52  34  50 NE15G22   30.32F
HALLOCK        SUNNY     55  27  33 NE20      30.31F
THF RVR FALLS  SUNNY     54  27  35 NE20G28   30.27F
HALSTAD        NOT AVBL
FOSSTON        SUNNY     54  28  37 NE14G25   30.23F
BAUDETTE       SUNNY     52  24  33 NE17G23   30.31F
WASKISH        SUNNY     54  28  37 NE18G28   30.27F
CROOKSTON      SUNNY     55  28  35 E18G28    30.26F
$$
  *****  WEATHER ACROSS CENTRAL AND WEST MINNESOTA  *****

CITY           SKY/WX    TMP DP  RH WIND       PRES   REMARKS
BEMIDJI        SUNNY     53  27  37 NE18G29   30.22F
PARK RAPIDS    SUNNY     51  28  41 E20G25    30.18F
WADENA         CLOUDY    52  32  46 E15G24    30.14F
DETROIT LAKES  SUNNY     52  32  46 E20G29    30.18S
MOORHEAD       SUNNY     55  32  41 NE22G28   30.19F
FERGUS FALLS   CLOUDY    52  32  46 E22G31    30.13F
ELBOW LAKE     FAIR      50  33  52 NE17G24   30.12F
MORRIS MN      CLOUDY    52  36  54 E22       30.09R
STAPLES        CLOUDY    52  28  40 NE14G24   30.15F
WHEATON        CLOUDY    54  36  50 NE16G25   30.13S
$$
  *****  WEATHER ELSEWHERE ACROSS MINNESOTA  *****

CITY           SKY/WX    TMP DP  RH WIND       PRES   REMARKS
DULUTH         MOSUNNY   47  32  56 E23G31    30.24S
INTRNTL FALLS  SUNNY     49  28  44 E10       30.30F
ELY            MOSUNNY   48  25  40 NE10G17   30.27S
CLOQUET        SUNNY     46  28  49 E18G29    30.23S
BRAINERD       CLOUDY    52  32  46 E15G30    30.17F
HIBBING        MOSUNNY   50  28  42 E10G22    30.24F
ALEXANDRIA     PTSUNNY   51  32  48 NE21G30   30.12F
SAINT CLOUD    PTSUNNY   49  33  54 NE12G21   30.11F
MINNEAPOLIS    CLOUDY    53  32  44 NE18      30.07F
$$

  *****  WEATHER ACROSS SOUTH DAKOTA  *****

CITY           SKY/WX    TMP DP  RH WIND       PRES   REMARKS
SIOUX FALLS    LGT RAIN  42  38  85 NE18G26   29.94S FOG
BROOKINGS      PTSUNNY   42  35  76 NE17      29.99R
WATERTOWN      CLOUDY    45  35  68 NE21G28   30.03S
HURON          CLOUDY    46  35  65 NE21G29   30.02R
SISSETON         N/A     51  33  50 E22G31    30.09F
ABERDEEN       PTSUNNY   52  33  48 NE23G31   30.11R
MITCHELL       CLOUDY    46  38  73 NE18      29.98R
PIERRE         CLOUDY    48  39  71 NE21      30.04S
MOBRIDGE       PTSUNNY   54  37  52 E14       30.11R
RAPID CITY     CLOUDY    45  38  76 N16       30.09S
$$

  *****  SOME WEATHER IN NEARBY STATES *****

CITY           SKY/WX    TMP DP  RH WIND       PRES   REMARKS
GLASGOW MT     SUNNY     54  33  45 E15       30.25R
GREAT FALLS MT CLOUDY    46  36  68 VRB5      30.19R
CHEYENNE WY    LGT SNOW  31  28  89 N20G28    29.95R VSB 1   WCI  19
SCOTTSBLUFF NE LGT SNOW  35  32  88 N18       29.95R FOG     WCI  24
OMAHA NE       DRIZZLE   48  45  89 E9        29.72S FOG
DES MOINES IA  HVY RAIN  48  44  86 E14G26    29.77R FOG
DAVENPORT IA   RAIN      49  46  90 E21       29.87F FOG
CHICAGO IL     LGT RAIN  47  40  76 E13       30.03F
EAU CLAIRE WI  CLOUDY    51  33  50 NE21G26   30.09F
LA CROSSE WI   CLOUDY    49  33  54 E10G18    30.05S
$$

  *****  SOME NATIONAL WEATHER *****

CITY           SKY/WX    TMP DP  RH WIND       PRES   REMARKS
LA GUARDIA NY  MOSUNNY   58  38  47 NE3       30.20S
RALEIGH NC     CLOUDY    61  56  83 E7        30.17R
ATLANTA GA     PTSUNNY   82  61  48 S7        29.99F
NEW ORLEANS LA CLOUDY    82  73  74 SE16G25   29.83S
OKLAHOMA CITY  MOSUNNY   57  48  72 NW8       29.83R
ALBUQUERQUE NM MOSUNNY   52  37  56 SW10      29.90S
SALT LAKE CITY MOSUNNY   53  35  50 W7        29.94R
LOS ANGELES CA PTSUNNY   61  48  63 W5        29.85S
BOISE ID       SUNNY     54  37  52 NW20G28   30.06R
SEATTLE WA     PTSUNNY   52  46  80 S3        30.38R
$$

*** WEATHER ACROSS MANITOBA...SASKATCHEWAN AND ONTARIO ***
                ***ONTARIO***

CITY           SKY/WX    TMP DP  RH WIND       PRES   REMARKS
GERALDTON      PTSUNNY   43  27  52 NE13      30.33F
THUNDER BAY    PTSUNNY   48  25  40 NE12G18   30.31S
SIOUX LOOKOUT  MOSUNNY   46  23  39 N5        30.37S
TORONTO        PTSUNNY   55  25  30 SE8       30.19F
BIG TROUT LK   SUNNY     37  27  65 S7        30.43S
PICKLE LAKE    PTSUNNY   41  27  56 N6        30.39S
DRYDEN         SUNNY     48  21  34 NE13      30.35F
KENORA         MOSUNNY   50  25  37 NE12G23   30.36F
$$
                *** MANITOBA***

CITY           SKY/WX    TMP DP  RH WIND       PRES   REMARKS
BRANDON        MOSUNNY   55  25  30 E15G24    30.36S
DAUPHIN        SUNNY     57  25  28 E7        30.41S
ISLAND LAKE    MOSUNNY   50  23  34 VRB2      30.41S
PILOT MOUND      N/A     55  28  35 E13G22      N/A
THE PAS        CLOUDY    61  25  25 SW10      30.38F
THOMPSON       PTSUNNY   52  25  35 CALM      30.36S
WINNIPEG       MOSUNNY   55  30  38 NE8       30.38S
LYNN LAKE      SUNNY     63  28  27 S6        30.29S
CHURCHILL      PTSUNNY   34  21  60 SE10      30.47S
GILLAM         PTSUNNY   48  23  37 SE8       30.42
$$
                ***SASKATCHEWAN***

CITY           SKY/WX    TMP DP  RH WIND       PRES   REMARKS
ESTEVAN        MOSUNNY   55  30  38 E9        30.32S
KINDERSLEY     MOSUNNY   57  32  38 S12       30.27R
LLOYDMINSTER   PTSUNNY   57  28  33 SE8       30.24R
PRINCE ALBERT  MOSUNNY   59  27  29 S13G20    30.34S
REGINA         MOSUNNY   57  27  30 SE13G20   30.34S
YORKTON        SUNNY     57  23  26 SE7       30.38S  C1F1C2F2C3F3C4F4C5F5C6F6C7F7C8F8C9F9CaFaCbFbCcFcCdFdCe!



USA.gov is the U.S. government's official web portal to all federal, state and local government web resources and services.